Hourly Weather Kistarcsa

Today, 30 July, Friday

Time Temperature Precipitation Wind Pressure Humidity
00:00 +23°C° 0 mm 1 mps 741 mmHg 52%
01:00 +23°C° 0 mm 1 mps 741 mmHg 53%
02:00 +23°C° 0 mm 1 mps 741 mmHg 54%
03:00 +22°C° 0 mm 1 mps 741 mmHg 55%
04:00 +22°C° 0 mm 1 mps 741 mmHg 55%
05:00 +23°C° 0 mm 1 mps 741 mmHg 52%
06:00 +25°C° 0 mm 1 mps 741 mmHg 48%
07:00 +26°C° 0 mm 1 mps 741 mmHg 45%
08:00 +28°C° 0 mm 1 mps 741 mmHg 41%
09:00 +30°C° 0 mm 1 mps 741 mmHg 37%
10:00 +32°C° 0 mm 1 mps 741 mmHg 33%
11:00 +33°C° 0 mm 1 mps 740 mmHg 31%
12:00 +35°C° 0 mm 2 mps 740 mmHg 29%
13:00 +36°C° 0 mm 2 mps 740 mmHg 27%
14:00 +36°C° 0 mm 2 mps 739 mmHg 25%
15:00 +36°C° 0 mm 2 mps 739 mmHg 23%
16:00 +36°C° 0 mm 1 mps 738 mmHg 22%
17:00 +34°C° 0 mm 1 mps 738 mmHg 25%
18:00 +32°C° 0 mm 1 mps 738 mmHg 27%
19:00 +31°C° 0 mm 2 mps 738 mmHg 30%
20:00 +30°C° 0 mm 2 mps 738 mmHg 33%
21:00 +28°C° 0 mm 2 mps 738 mmHg 35%
22:00 +27°C° 0 mm 2 mps 738 mmHg 38%
23:00 +27°C° 0 mm 2 mps 738 mmHg 38%

Tomorrow, 31 July, Saturday

Time Temperature Precipitation Wind Pressure Humidity
00:00 +27°C° 0 mm 2 mps 738 mmHg 38%
01:00 +27°C° 0 mm 2 mps 738 mmHg 38%
02:00 +26°C° 0 mm 2 mps 737 mmHg 42%
03:00 +25°C° 0 mm 2 mps 737 mmHg 45%
04:00 +24°C° 0 mm 2 mps 737 mmHg 48%
05:00 +24°C° 0.3 mm 2 mps 737 mmHg 51%
06:00 +25°C° 0.3 mm 2 mps 737 mmHg 55%
07:00 +25°C° 0.3 mm 2 mps 738 mmHg 58%
08:00 +26°C° 0.5 mm 2 mps 738 mmHg 56%
09:00 +28°C° 0.5 mm 2 mps 738 mmHg 53%
10:00 +29°C° 0.5 mm 3 mps 738 mmHg 51%
11:00 +30°C° 0 mm 4 mps 738 mmHg 48%
12:00 +32°C° 0 mm 4 mps 738 mmHg 44%
13:00 +33°C° 0 mm 5 mps 738 mmHg 41%
14:00 +32°C° 0 mm 5 mps 738 mmHg 41%
15:00 +32°C° 0 mm 5 mps 738 mmHg 41%
16:00 +32°C° 0 mm 5 mps 738 mmHg 41%
17:00 +29°C° 0 mm 4 mps 738 mmHg 44%
18:00 +28°C° 0 mm 4 mps 738 mmHg 48%
19:00 +26°C° 0 mm 3 mps 738 mmHg 52%
20:00 +25°C° 0 mm 3 mps 738 mmHg 55%
21:00 +24°C° 0 mm 2 mps 738 mmHg 58%
22:00 +23°C° 0 mm 2 mps 738 mmHg 61%
23:00 +23°C° 0.1 mm 2 mps 739 mmHg 66%

Day after tomorrow, 1 August, Sunday

Time Temperature Precipitation Wind Pressure Humidity
00:00 +22°C° 0.1 mm 1 mps 739 mmHg 71%
01:00 +21°C° 0.1 mm 1 mps 739 mmHg 76%
02:00 +21°C° 0 mm 1 mps 739 mmHg 78%
03:00 +20°C° 0 mm 1 mps 738 mmHg 80%
04:00 +20°C° 0 mm 1 mps 738 mmHg 82%
05:00 +20°C° 0.2 mm 2 mps 738 mmHg 79%
06:00 +21°C° 0.2 mm 3 mps 738 mmHg 76%
07:00 +22°C° 0.2 mm 3 mps 738 mmHg 73%
08:00 +25°C° 0 mm 3 mps 738 mmHg 63%
09:00 +28°C° 0 mm 4 mps 737 mmHg 54%
10:00 +30°C° 0 mm 4 mps 737 mmHg 45%
11:00 +33°C° 0 mm 4 mps 737 mmHg 37%
12:00 +35°C° 0 mm 5 mps 736 mmHg 30%
13:00 +39°C° 0 mm 5 mps 735 mmHg 23%
14:00 +39°C° 0 mm 5 mps 735 mmHg 23%
15:00 +39°C° 0 mm 6 mps 734 mmHg 22%
16:00 +39°C° 0 mm 7 mps 734 mmHg 22%
17:00 +34°C° 0 mm 6 mps 734 mmHg 37%
18:00 +29°C° 0 mm 6 mps 735 mmHg 52%
19:00 +25°C° 0 mm 5 mps 736 mmHg 67%
20:00 +22°C° 0 mm 5 mps 736 mmHg 71%
21:00 +21°C° 0 mm 5 mps 737 mmHg 74%
22:00 +20°C° 0 mm 4 mps 737 mmHg 78%
23:00 +19°C° 0 mm 4 mps 737 mmHg 78%

2 August, Monday

Time Temperature Precipitation Wind Pressure Humidity
00:00 +19°C° 0 mm 4 mps 737 mmHg 78%
01:00 +18°C° 0 mm 4 mps 738 mmHg 79%
02:00 +17°C° 0 mm 4 mps 738 mmHg 79%
03:00 +17°C° 0 mm 3 mps 738 mmHg 80%
04:00 +17°C° 0 mm 3 mps 738 mmHg 81%
05:00 +18°C° 0 mm 4 mps 738 mmHg 74%
06:00 +19°C° 0 mm 4 mps 739 mmHg 68%
07:00 +20°C° 0 mm 5 mps 739 mmHg 61%
08:00 +22°C° 0 mm 5 mps 739 mmHg 54%
09:00 +23°C° 0 mm 5 mps 740 mmHg 47%
10:00 +26°C° 0 mm 5 mps 740 mmHg 40%
11:00 +27°C° 0 mm 5 mps 740 mmHg 38%
12:00 +28°C° 0 mm 5 mps 740 mmHg 35%
13:00 +29°C° 0 mm 5 mps 740 mmHg 33%
14:00 +29°C° 0 mm 5 mps 740 mmHg 33%
15:00 +29°C° 0 mm 5 mps 740 mmHg 33%
16:00 +28°C° 0 mm 5 mps 740 mmHg 34%
17:00 +27°C° 0 mm 4 mps 740 mmHg 36%
18:00 +26°C° 0 mm 3 mps 740 mmHg 39%
19:00 +25°C° 0 mm 3 mps 740 mmHg 41%
20:00 +24°C° 0 mm 3 mps 741 mmHg 44%
21:00 +23°C° 0 mm 2 mps 741 mmHg 47%
22:00 +21°C° 0 mm 2 mps 742 mmHg 51%
23:00 +20°C° 0 mm 2 mps 742 mmHg 53%

3 August, Tuesday

Time Temperature Precipitation Wind Pressure Humidity
00:00 +20°C° 0 mm 2 mps 742 mmHg 55%
01:00 +19°C° 0 mm 2 mps 742 mmHg 58%
02:00 +19°C° 0 mm 2 mps 743 mmHg 60%
03:00 +18°C° 0 mm 2 mps 743 mmHg 63%
04:00 +18°C° 0 mm 2 mps 743 mmHg 65%
05:00 +19°C° 0 mm 2 mps 743 mmHg 60%
06:00 +21°C° 0 mm 1 mps 744 mmHg 56%
07:00 +23°C° 0 mm 1 mps 744 mmHg 51%
08:00 +25°C° 0 mm 1 mps 744 mmHg 45%
09:00 +27°C° 0 mm 1 mps 744 mmHg 39%
10:00 +28°C° 0 mm 1 mps 744 mmHg 33%
11:00 +29°C° 0 mm 2 mps 744 mmHg 31%
12:00 +30°C° 0 mm 2 mps 743 mmHg 29%
13:00 +31°C° 0 mm 2 mps 743 mmHg 27%
14:00 +32°C° 0 mm 2 mps 742 mmHg 26%
15:00 +32°C° 0 mm 1 mps 742 mmHg 25%
16:00 +32°C° 0 mm 1 mps 741 mmHg 25%
17:00 +31°C° 0 mm 1 mps 741 mmHg 27%
18:00 +29°C° 0 mm 2 mps 741 mmHg 30%
19:00 +28°C° 0 mm 2 mps 740 mmHg 32%
20:00 +27°C° 0 mm 2 mps 740 mmHg 35%
21:00 +26°C° 0 mm 2 mps 740 mmHg 37%
22:00 +25°C° 0 mm 2 mps 740 mmHg 40%
23:00 +24°C° 0.1 mm 3 mps 740 mmHg 44%

4 August, Wednesday

Time Temperature Precipitation Wind Pressure Humidity
00:00 +24°C° 0.1 mm 3 mps 741 mmHg 48%
01:00 +22°C° 0.1 mm 3 mps 741 mmHg 53%
02:00 +23°C° 0.1 mm 2 mps 741 mmHg 58%
03:00 +21°C° 0.1 mm 2 mps 740 mmHg 62%
04:00 +20°C° 0.1 mm 2 mps 740 mmHg 67%
05:00 +20°C° 0.1 mm 2 mps 740 mmHg 67%
06:00 +21°C° 0.1 mm 2 mps 740 mmHg 67%
07:00 +22°C° 0.1 mm 1 mps 741 mmHg 67%
08:00 +23°C° 0 mm 2 mps 741 mmHg 61%
09:00 +25°C° 0 mm 2 mps 741 mmHg 55%
10:00 +26°C° 0 mm 3 mps 741 mmHg 49%
11:00 +27°C° 0 mm 3 mps 741 mmHg 47%
12:00 +28°C° 0 mm 4 mps 741 mmHg 45%
13:00 +28°C° 0 mm 4 mps 741 mmHg 43%
14:00 +28°C° 0 mm 5 mps 741 mmHg 43%
15:00 +28°C° 0 mm 5 mps 741 mmHg 43%
16:00 +28°C° 0 mm 6 mps 741 mmHg 44%
17:00 +26°C° 0 mm 5 mps 740 mmHg 50%
18:00 +23°C° 0 mm 5 mps 740 mmHg 57%
19:00 +22°C° 0 mm 4 mps 740 mmHg 64%
20:00 +21°C° 0 mm 3 mps 740 mmHg 68%
21:00 +20°C° 0 mm 3 mps 740 mmHg 73%
22:00 +19°C° 0 mm 2 mps 740 mmHg 78%
23:00 +19°C° 0 mm 2 mps 740 mmHg 79%
Show more